Location: Limoges
(45.8354°N, 1.2645°E)
Time: 20:26:00
(UTC+02:00)

Courier 1B Rocket - Pass Details

Date: 22 February 2024
Orbit: 920 x 1201 km, 28.2° (Epoch: 20 April)

Event Time Altitude Azimuth Distance (km) Brightness Sun altitude
Rises 04:55:52 0° 216° (SW) 3,542 - -30.3°
Reaches altitude 10° 05:00:30 10° 185° (S) 2,605 - -29.5°
Exits shadow 05:02:10 12° 169° (S) 2,499 7.1 -29.2°
Maximum altitude 05:02:30 12° 166° (SSE) 2,498 7.1 -29.2°
Drops below altitude 10° 05:04:31 10° 146° (SSE) 2,626 7.4 -28.8°
Sets 05:09:14 0° 116° (ESE) 3,615 8.7 -28.0°
